Temp
18 16 16 17 17 18 19 20 20 21 21 21 21 20 20 20 21 23 22 20 20 21 20 21 21 22 22 23 23 23 24 24 24 24 24 25 25 25 24 23 23 23 23 23 22 22 21 21 21 21 20 20 20 20 19 19 19 19 19 18 17 17 17 16 16 16 16 16 16 16 16 17 17 17 17 17 17 17 17 17 17 17 16 16 16 16
18 16 16 17 18 19 19 20 20 21 21 21 20 20 20 20 21 23 22 20 20 20 20 21 21 21 22 22 23 23 23 24 24 24 24 24 25 25 25 24 23 23 23 23 22 21 21 21 20 20 20 20 19 19 19 19 19 19 19 18 17 17 17 16 16 16 16 16 16 16 17 17 17 17 17 17 17 17 17 17 17 17 16 16 16 16
16 16 17 18 19 20 20 20 20 20 20 20 20 19 20 21 22 22 21 20 20 19 19 20 20 20 22 22 23 23 23 23 24 25 24 25 24 24 25 24 24 23 23 23 22 20 20 20 20 20 20 19 19 19 19 19 19 19 19 19 18 17 17 16 16 15 16 16 16 17 17 17 17 17 17 17 17 17 17 17 17 17 16 16 16 16
15 16 18 19 20 20 19 20 20 20 20 20 19 19 19 21 22 21 20 20 20 19 20 20 19 20 21 22 22 23 23 23 24 25 25 25 25 24 25 24 24 23 23 23 22 20 20 20 20 19 19 19 19 19 19 19 19 19 19 19 18 17 17 16 16 15 15 15 16 16 17 17 17 17 17 16 16 16 17 17 17 17 16 16 16 16
16 18 19 20 20 20 19 20 20 19 19 19 19 19 20 21 21 21 20 20 20 20 20 19 18 19 20 21 21 22 23 23 24 24 24 25 25 25 25 25 24 24 23 22 22 21 19 19 19 19 19 19 19 19 19 19 19 19 19 18 18 18 17 16 16 15 15 15 16 16 16 16 16 16 16 16 16 16 16 16 17 17 16 16 16 16
17 19 20 20 20 20 20 20 20 20 19 19 19 19 20 21 22 22 20 20 19 19 19 19 18 19 21 21 21 23 23 22 23 23 24 24 25 25 25 25 25 24 23 23 22 21 19 19 19 19 19 18 19 18 18 19 19 19 18 18 18 18 17 17 16 16 15 15 15 16 16 16 16 16 16 16 16 16 16 16 16 16 16 16 16 16
18 19 20 19 19 20 19 19 20 20 19 18 19 20 21 21 22 22 21 20 19 19 20 20 18 19 20 21 22 23 23 23 23 23 23 24 24 24 24 24 24 24 24 23 22 21 19 19 19 18 19 18 18 18 19 19 19 19 19 18 18 18 17 17 16 16 15 15 15 15 16 16 16 16 16 16 16 16 16 16 16 16 16 16 16 16
18 18 19 19 19 19 19 19 20 21 19 18 20 21 20 21 21 21 21 20 19 19 19 20 19 18 18 20 22 23 23 23 24 23 23 23 24 24 24 24 24 24 24 23 23 22 20 19 19 19 18 18 19 18 18 18 18 19 19 18 18 18 17 17 17 16 16 15 15 15 15 16 16 16 16 16 16 17 17 16 16 16 16 16 16 16
19 18 18 19 18 18 19 19 21 21 19 19 21 21 20 21 21 21 21 20 18 17 17 19 20 18 17 20 22 22 22 22 23 24 24 24 24 25 25 24 24 24 24 23 23 23 21 19 19 19 19 19 19 19 18 19 18 18 18 18 18 18 17 17 17 16 16 16 15 15 15 15 16 16 16 16 17 17 17 17 17 16 16 16 16 16
18 19 19 19 18 18 19 20 20 20 19 19 20 21 21 21 20 20 19 19 17 16 16 18 19 18 18 20 21 21 21 22 23 24 25 25 25 25 25 25 24 24 24 23 23 23 21 21 21 20 20 19 19 19 19 18 18 18 18 18 18 18 18 17 17 17 16 16 16 15 15 16 16 16 16 17 17 17 17 17 17 16 16 16 16 16
18 19 19 19 19 19 19 20 20 20 20 20 20 19 19 19 19 19 18 18 17 16 17 18 19 18 17 19 21 21 22 23 23 24 25 26 26 25 25 25 25 24 23 23 23 22 21 22 22 21 20 20 19 19 19 18 18 18 18 18 18 18 18 18 17 17 17 16 16 16 16 16 16 16 16 16 16 16 16 16 16 16 16 16 16 16
18 18 17 18 19 20 19 18 18 19 20 20 19 18 18 17 17 17 17 17 16 16 17 18 19 18 17 19 22 23 24 24 23 24 25 26 26 26 25 25 25 25 24 23 23 23 22 22 22 21 20 20 20 19 19 19 19 18 18 18 18 18 18 18 18 18 17 17 16 16 16 16 16 16 16 16 16 16 16 16 16 16 16 16 16 16
16 16 17 17 18 19 18 17 17 18 19 19 18 18 17 16 16 16 15 15 15 16 18 18 18 18 17 19 22 23 23 24 24 25 25 25 26 26 26 25 25 25 24 24 23 23 23 22 20 20 20 20 20 20 19 19 19 18 18 18 18 18 18 18 18 18 18 17 17 16 16 17 17 17 16 16 16 16 16 16 16 16 16 15 15 16
15 16 17 17 16 17 18 17 16 16 17 18 18 17 17 16 15 16 16 15 16 17 18 19 19 18 19 20 22 22 23 23 24 25 25 25 26 26 25 25 24 24 24 23 23 22 22 21 19 19 20 20 20 20 19 19 19 18 18 18 18 18 18 18 18 18 18 18 17 17 17 17 17 17 17 16 16 16 16 16 16 16 16 16 16 16
16 16 16 16 16 17 18 18 18 17 17 18 19 18 18 17 17 16 16 16 17 17 17 18 18 19 20 21 22 22 23 23 24 24 24 25 25 25 25 24 24 24 23 23 22 22 21 20 19 20 20 20 20 20 19 18 18 18 18 18 18 18 18 18 18 18 18 18 17 17 17 17 17 17 17 16 16 16 16 16 16 16 16 16 16 16
17 16 16 17 18 18 17 18 19 18 17 18 19 18 17 19 19 18 18 18 18 18 17 17 18 19 20 21 22 22 23 24 24 24 24 24 24 24 24 24 24 23 23 22 21 21 20 18 19 20 19 19 20 19 19 19 18 18 18 17 17 17 18 18 18 18 17 17 17 17 17 17 17 17 17 17 17 17 17 17 17 16 16 16 16 16
17 16 16 17 18 18 19 19 19 19 18 17 18 17 18 19 20 19 18 18 18 18 17 17 17 18 20 21 22 23 23 23 23 23 23 23 23 23 23 23 23 23 23 22 21 22 20 17 17 18 19 19 19 19 19 19 19 18 18 17 17 17 17 17 17 17 17 17 17 17 17 17 17 17 17 17 17 17 17 17 17 17 16 16 16 15
17 15 14 15 17 18 19 19 19 19 19 17 17 18 19 19 19 19 18 18 18 18 18 18 17 18 19 20 23 23 23 23 23 23 23 23 23 23 23 23 23 23 23 23 22 21 19 16 15 17 18 18 18 18 18 19 19 18 18 17 17 17 17 17 17 17 17 17 17 17 17 17 17 17 17 17 17 17 17 17 17 17 16 16 15 15
17 14 13 14 15 16 17 16 16 17 18 18 18 19 19 18 17 18 18 18 17 17 18 19 18 19 19 20 22 23 23 23 24 23 23 23 23 23 23 23 23 23 23 22 22 20 19 17 16 16 16 16 17 17 17 17 17 17 17 17 17 16 17 17 17 17 17 17 17 17 17 17 17 17 17 17 17 17 17 17 16 16 16 16 15 15
18 16 13 13 14 15 15 14 14 15 16 18 19 19 19 18 18 18 18 18 18 18 18 19 19 19 20 21 22 23 24 24 25 24 23 24 24 24 23 23 23 23 22 21 20 19 18 17 16 16 16 15 15 15 15 15 15 16 16 16 16 16 16 16 16 17 17 17 17 17 16 17 17 17 17 17 16 16 16 16 16 16 16 15 15 15
18 17 14 12 13 14 14 15 16 15 15 17 17 17 18 18 18 18 19 19 19 18 18 19 19 20 21 23 23 23 24 24 25 25 24 24 24 24 23 23 22 22 21 20 19 18 17 16 15 15 15 14 14 14 14 14 14 14 14 14 14 15 15 15 16 16 16 16 16 16 16 16 16 16 16 16 16 16 16 16 16 16 15 15 15 14
18 17 14 12 12 14 14 15 16 17 17 17 17 17 17 17 17 18 18 19 19 18 18 19 18 19 23 24 23 24 24 24 25 25 25 25 24 23 22 22 21 20 20 19 18 18 16 14 14 14 13 13 12 12 12 12 12 12 12 13 13 13 14 14 15 15 16 16 16 16 16 16 16 16 16 16 16 16 16 16 16 15 15 15 14 14
18 15 13 12 13 14 14 14 15 16 17 18 17 18 18 18 18 17 17 18 18 18 19 19 18 19 23 25 24 24 25 25 25 25 25 24 23 22 21 21 20 19 19 18 17 16 15 13 13 13 11 11 11 10 10 10 10 11 11 11 12 12 13 13 14 14 14 15 15 15 15 15 15 15 15 15 15 15 15 15 15 15 15 15 14 14
17 15 13 12 12 13 13 14 15 16 17 17 17 18 18 18 18 18 18 18 18 18 18 18 17 19 23 24 24 24 25 25 25 24 24 23 22 22 21 21 20 19 18 17 16 15 13 12 12 11 11 10 10 9 9 9 9 9 10 11 11 11 12 12 13 13 13 14 13 14 14 14 14 14 14 14 14 14 14 14 15 14 14 14 14 14
17 15 13 12 12 13 13 13 14 14 15 16 16 17 18 18 18 18 18 18 17 18 18 17 17 19 22 22 23 24 24 24 24 23 22 22 22 21 21 20 19 19 18 17 17 16 14 13 12 10 11 11 10 9 9 9 9 9 10 10 10 11 11 12 12 12 13 13 13 13 13 12 12 12 13 13 13 14 14 14 14 14 14 14 14 14
16 15 15 14 14 13 13 14 14 14 14 16 16 17 17 18 18 18 18 17 17 18 18 17 18 19 21 22 22 23 22 23 24 23 22 21 21 21 21 20 20 20 19 18 17 16 16 14 12 10 11 11 10 10 10 9 9 10 10 10 10 10 11 11 11 12 11 12 11 11 11 11 11 12 12 13 13 13 13 13 14 14 14 14 14 14
15 15 16 16 16 16 16 15 16 15 15 15 16 16 17 17 17 18 17 17 17 17 17 17 18 19 20 20 21 21 21 23 23 23 22 21 21 20 20 20 20 20 19 19 17 16 16 16 14 12 11 12 11 10 10 10 10 10 10 10 10 10 10 10 11 11 10 10 9 9 9 10 10 11 12 12 12 12 13 13 13 13 13 13 13 13
15 15 16 16 17 18 18 16 16 16 15 15 15 16 16 17 17 17 16 17 18 17 16 18 19 18 19 20 20 21 21 22 22 22 22 22 21 20 20 20 20 20 19 19 18 18 18 17 16 13 11 11 12 11 10 10 10 10 10 10 10 9 9 9 10 10 9 9 8 8 8 8 9 10 11 11 12 12 12 12 13 13 13 13 13 13
15 15 16 16 17 18 17 16 16 17 16 16 15 16 16 16 16 16 16 17 18 17 17 18 19 18 19 20 21 21 21 22 22 22 23 22 21 20 19 20 20 20 20 19 19 20 19 18 18 15 11 11 12 11 10 10 10 10 10 10 9 9 9 8 8 8 7 7 7 7 7 7 7 8 9 10 11 11 11 12 12 12 12 12 12 12
15 15 16 16 16 17 17 16 17 17 16 16 15 16 16 16 16 16 17 17 17 17 18 19 19 19 20 20 21 22 22 22 23 22 22 22 21 20 20 21 22 21 20 20 20 20 20 19 19 15 10 10 11 11 10 10 10 10 9 9 9 9 8 8 7 6 6 6 6 6 6 6 6 7 8 8 9 10 10 11 11 11 11 11 11 11
14 15 15 16 16 16 16 16 16 16 16 15 15 16 16 16 16 16 16 17 17 17 18 18 18 18 20 21 22 22 22 22 22 22 22 21 21 21 21 22 22 21 21 20 20 21 20 19 19 16 12 11 13 12 12 12 11 10 10 9 9 9 9 8 6 6 6 6 6 6 6 7 7 7 7 7 8 8 9 10 10 10 10 10 10 10
14 14 15 15 15 15 16 16 16 16 16 15 15 15 15 15 16 16 16 17 17 17 17 17 17 17 19 21 22 22 22 21 22 22 21 21 21 21 21 21 22 22 21 20 20 21 20 20 20 18 15 13 15 15 14 13 12 11 10 10 10 9 8 7 6 6 6 6 6 6 7 7 7 8 8 8 8 8 8 9 9 9 10 9 9 9
14 14 14 14 14 14 15 15 15 15 15 14 14 15 15 15 16 16 16 17 17 17 16 16 17 18 19 21 21 21 21 21 21 21 21 21 22 21 21 21 22 21 21 21 20 20 21 20 18 16 16 17 18 17 16 15 14 12 12 11 10 9 7 6 6 6 6 6 6 6 7 7 8 8 8 8 8 8 8 8 9 9 9 9 9 9
14 14 14 14 14 14 14 15 15 14 14 15 16 16 16 16 16 16 16 16 17 17 17 17 18 19 19 20 20 20 20 20 21 21 21 22 22 22 21 21 21 21 21 21 21 21 21 19 16 16 18 19 19 18 17 16 14 14 13 11 10 9 7 6 6 6 6 6 6 6 7 7 8 8 8 8 8 8 8 8 8 8 8 8 8 8
13 14 14 14 14 13 13 14 14 13 14 17 18 17 17 17 17 16 16 17 17 17 17 17 18 18 19 19 19 20 20 20 21 21 21 22 22 22 21 20 20 21 21 21 21 21 20 17 15 17 19 19 18 17 16 15 14 13 12 10 10 8 7 6 5 6 6 6 6 6 7 7 7 7 7 7 7 7 7 7 7 7 7 7 7 7
13 14 14 14 14 13 13 13 14 15 16 17 18 17 17 17 17 16 16 16 17 17 17 17 17 18 18 19 19 20 20 20 21 20 20 21 22 21 21 20 20 21 21 21 21 21 19 17 17 19 19 19 18 17 16 15 14 12 11 10 9 8 7 5 5 6 6 6 6 6 6 7 7 7 7 6 6 7 7 7 7 6 6 7 6 6
13 13 13 13 13 13 13 13 15 16 16 16 17 17 17 17 17 16 15 16 17 18 17 17 17 18 18 18 19 20 20 20 19 18 19 20 21 21 20 20 20 20 20 20 20 20 19 18 19 20 19 18 17 16 15 14 13 12 10 9 8 7 6 5 5 5 6 6 6 6 6 7 7 6 6 6 6 6 6 6 6 6 6 6 6 6
13 13 13 13 12 12 13 13 14 14 15 16 18 18 18 18 18 17 16 17 18 18 18 18 18 18 18 18 18 19 19 19 18 17 19 20 21 20 19 20 20 18 17 17 18 18 18 18 18 18 17 17 15 14 13 12 11 10 9 8 7 5 4 4 5 5 5 6 6 6 6 6 7 7 6 6 6 6 6 6 6 6 6 6 6 6
13 13 13 13 12 12 13 13 14 14 16 18 18 18 18 19 19 18 16 16 18 19 18 18 18 18 18 18 18 19 18 18 17 18 19 20 20 19 19 20 19 17 15 16 17 17 16 16 16 15 15 14 13 11 11 10 10 9 8 7 5 4 4 4 4 4 5 5 6 6 6 6 6 7 6 6 6 6 6 6 6 5 5 5 5 5
11 11 11 11 11 12 13 14 14 15 17 18 19 18 18 19 19 18 15 16 20 20 19 19 18 18 19 18 18 18 17 17 18 19 20 20 19 19 19 19 18 17 15 13 13 13 13 13 13 12 12 11 10 10 9 9 8 7 7 6 5 4 3 3 4 4 5 5 5 6 6 6 6 6 6 6 6 6 6 6 5 5 5 4 4 4
10 10 10 11 12 12 13 14 14 15 17 19 19 18 18 19 19 17 16 19 22 22 20 20 19 18 19 18 18 18 18 18 19 19 19 20 19 18 16 12 10 11 10 9 9 10 10 10 10 9 9 8 8 8 8 8 7 6 6 6 5 4 4 4 3 4 4 5 5 5 5 6 6 6 6 6 6 6 5 5 5 5 5 4 4 3
11 10 11 11 12 12 13 14 14 15 17 19 18 18 19 19 18 17 19 21 23 22 20 19 19 19 19 19 18 18 19 19 19 18 18 18 18 17 14 9 8 8 8 6 7 8 8 8 7 7 6 6 7 7 7 7 7 6 5 5 5 5 5 4 4 3 4 4 4 5 5 5 5 5 5 5 5 5 5 5 4 4 4 4 4 4
12 11 11 12 12 12 12 13 14 15 17 18 17 17 19 19 18 20 21 20 20 21 20 19 19 19 18 18 18 19 19 18 18 17 17 17 16 15 13 11 10 9 6 4 5 6 7 6 4 4 4 4 5 5 6 6 6 5 5 5 5 4 5 4 4 3 3 4 4 4 4 4 5 5 4 4 4 4 4 4 3 3 3 3 3 3
13 13 12 12 13 13 13 13 15 16 17 18 18 17 19 20 19 20 22 21 19 19 19 19 19 19 19 19 18 18 19 18 17 17 15 14 14 12 11 9 7 5 3 3 4 5 5 3 2 2 2 2 3 4 5 6 5 5 4 4 4 4 4 4 4 3 3 3 3 3 3 4 4 4 3 3 3 3 3 3 2 2 2 2 2 2
13 14 14 14 14 14 14 15 16 17 16 17 19 19 19 20 18 18 21 22 20 19 18 19 19 18 18 19 18 18 19 18 17 16 14 13 12 10 9 7 5 3 2 2 3 4 3 2 1 1 1 1 2 3 4 5 5 4 3 3 3 3 3 3 3 3 3 2 2 2 2 2 2 2 2 2 2 2 2 2 2 1 1 1 1 0
13 14 15 15 14 15 15 15 16 16 16 17 18 18 19 20 19 17 18 20 19 18 17 17 18 18 18 18 18 18 18 17 15 14 13 11 10 8 6 4 3 2 1 1 1 2 1 0 -0 0 -0 0 1 2 2 3 3 2 2 2 2 3 3 3 2 2 2 2 2 1 1 1 1 1 1 1 1 1 1 1 1 1 0 0 -0 -0
13 13 14 15 15 14 15 15 16 16 16 17 18 18 18 18 17 16 17 16 16 16 16 16 17 17 16 17 19 18 17 15 15 13 11 9 8 6 5 4 2 1 0 0 0 -0 -1 -0 -0 -0 -1 -1 -1 0 1 1 1 1 1 2 2 2 2 2 2 1 1 1 1 1 1 1 0 0 -0 -0 0 0 0 1 0 0 -0 -0 -1 -1
13 13 13 14 14 14 15 16 16 16 16 16 17 18 18 17 16 15 15 14 13 14 14 13 14 15 16 16 17 17 15 14 14 13 10 7 6 5 4 3 1 -0 -0 0 -0 -1 -1 -1 -1 -1 -2 -2 -2 -1 -0 -0 0 0 1 1 1 2 2 1 1 1 0 0 0 -0 -0 -0 -0 -0 -0 -1 -1 -0 -0 -0 -0 -0 -0 -0 -1 -1
13 13 13 14 14 14 15 16 16 16 16 15 16 16 17 17 16 15 13 13 13 13 13 12 12 13 15 15 15 15 15 13 12 10 8 6 5 4 3 2 -0 -1 -1 -0 -1 -1 -1 -1 -1 -2 -3 -3 -3 -2 -1 -1 -1 0 1 1 1 2 2 1 1 0 -0 -0 -0 -0 -1 -1 -1 -0 -0 -1 -1 -1 -1 -1 -1 -1 -1 -1 -1 -1
13 13 13 14 13 14 15 15 15 15 15 14 15 16 17 17 17 16 13 12 13 14 14 14 12 10 11 12 12 14 14 11 9 8 7 5 4 3 2 -0 -2 -2 -1 -1 -1 -1 -1 -2 -2 -3 -4 -4 -3 -2 -1 -1 -1 -0 0 0 1 2 2 1 1 0 -0 -0 -0 -1 -1 -1 -1 -1 -1 -1 -1 -1 -1 -1 -1 -1 -1 -1 -1 -1
14 14 14 14 14 14 15 15 15 16 16 15 15 17 17 17 17 16 14 13 13 13 12 13 13 11 10 10 10 11 12 10 7 7 6 4 2 1 0 -1 -2 -2 -2 -2 -2 -2 -3 -3 -3 -3 -4 -4 -2 -2 -2 -1 -1 -1 -0 -0 0 1 2 2 1 0 -1 -1 -1 -1 -1 -1 -1 -1 -1 -1 -1 -1 -2 -2 -1 -1 -1 -1 -1 -1
Height
808 822 824 818 817 816 815 814 815 814 815 817 820 825 826 827 824 815 817 822 821 829 831 825 825 820 814 811 808 807 804 803 805 804 803 803 803 803 804 806 806 806 805 804 805 807 809 810 812 814 816 818 820 822 823 825 826 828 829 830 831 833 835 837 838 840 841 842 843 845 846 847 848 850 852 853 854 856 856 857 858 859 860 861 862 863
809 819 816 810 810 811 812 812 813 814 814 817 822 826 827 827 821 809 814 822 820 829 831 822 824 821 813 809 805 804 804 802 801 800 800 799 800 800 800 802 802 802 802 802 803 804 806 808 809 811 812 814 816 817 819 820 822 824 825 827 827 829 831 832 834 835 836 837 839 840 842 843 845 847 848 850 851 853 854 855 856 856 857 858 860 861
815 812 804 804 805 807 811 811 813 815 816 820 823 828 830 824 817 813 817 821 821 829 830 823 824 820 810 805 802 800 801 799 795 794 795 795 796 797 796 797 798 799 800 799 800 801 803 804 806 808 809 811 812 813 815 817 819 821 822 823 824 826 827 829 830 831 833 834 836 837 839 841 843 844 845 847 849 850 852 852 853 854 855 856 857 858
812 802 796 799 802 806 811 811 813 817 818 820 824 830 830 821 818 823 824 822 822 826 826 823 824 819 810 804 799 796 794 792 790 789 789 790 792 792 791 792 793 795 797 797 798 798 800 802 804 805 806 807 808 810 811 813 815 816 817 819 820 822 824 826 828 829 830 832 835 836 838 839 841 842 843 845 846 847 848 849 851 851 852 853 855 856
798 792 790 795 799 804 810 811 813 818 821 820 822 826 826 819 816 819 823 823 822 823 822 826 831 821 808 805 799 791 789 789 787 788 787 786 786 787 787 787 788 789 791 793 794 795 797 799 800 801 803 804 805 806 807 808 810 811 812 814 817 819 821 823 824 826 829 831 833 835 836 838 839 840 841 842 843 843 845 846 847 849 850 851 852 853
792 786 786 793 797 800 806 808 809 814 821 823 820 820 819 816 812 813 819 824 830 832 823 827 839 821 799 799 797 788 788 789 786 786 786 785 783 783 784 784 784 784 785 787 789 791 793 794 797 798 800 801 801 802 803 804 805 806 808 811 813 815 817 819 821 823 826 828 829 830 831 833 834 835 835 836 837 838 840 841 843 846 847 848 849 850
787 784 784 791 795 798 804 806 803 805 818 825 817 813 814 812 812 813 817 824 834 836 823 822 837 829 807 800 795 788 787 786 783 784 784 783 781 780 780 780 781 781 781 782 784 786 789 790 793 795 795 797 797 798 800 801 802 803 805 807 809 810 812 814 816 818 821 822 824 825 826 827 827 829 829 830 833 834 836 838 840 842 843 845 846 847
780 785 785 788 793 798 803 804 798 799 815 821 808 807 813 813 815 816 818 824 829 831 827 821 829 835 823 804 792 788 788 785 781 781 779 778 777 775 776 776 776 778 777 779 780 781 784 785 787 789 790 792 792 794 797 798 798 800 801 803 804 806 808 810 812 813 815 816 818 820 822 823 823 824 825 827 830 831 833 835 836 838 839 841 842 843
772 781 783 785 793 797 797 796 793 797 811 814 803 805 811 812 814 815 818 826 830 836 839 827 825 836 825 799 788 786 788 788 781 776 774 772 771 770 771 771 772 773 773 774 775 776 777 779 781 782 784 786 787 790 792 792 794 796 798 800 801 802 804 805 807 809 810 811 813 815 817 818 819 820 823 825 827 828 830 831 832 834 835 837 838 840
770 772 774 781 790 792 791 791 791 797 807 807 803 805 809 811 814 818 824 829 836 844 842 830 826 833 821 796 789 790 788 786 778 771 768 765 764 764 765 766 766 768 769 769 770 771 771 773 774 776 778 780 782 785 787 789 792 794 796 798 799 799 800 802 803 805 806 807 809 811 811 812 814 816 819 822 823 825 826 827 828 829 831 832 834 835
770 769 773 779 783 785 788 791 793 797 801 803 806 811 817 820 821 825 829 833 844 845 834 826 823 831 827 798 785 787 781 777 773 769 766 761 760 761 760 761 762 763 764 765 766 766 767 768 769 772 774 776 778 781 784 786 788 791 793 795 796 797 798 799 800 802 802 804 805 806 807 808 810 812 815 817 818 820 822 823 824 825 826 828 829 831
774 777 781 779 776 777 786 796 797 797 798 801 808 816 825 832 834 837 839 842 850 842 827 823 820 828 830 800 778 775 767 765 768 767 765 761 759 758 758 758 757 759 760 761 763 763 764 766 767 769 771 772 775 778 780 782 784 786 788 790 792 794 795 796 798 799 800 801 802 803 804 805 807 808 810 811 813 815 816 818 820 822 823 824 825 827
782 781 779 779 778 775 785 800 805 803 802 804 810 817 829 841 845 846 848 848 847 837 824 820 821 824 815 791 777 773 765 762 762 760 760 759 757 755 755 755 754 755 757 758 760 761 761 762 763 765 767 769 771 773 775 777 779 782 784 786 788 789 790 793 795 796 797 798 798 799 801 802 804 805 806 807 809 810 812 814 816 817 819 820 821 821
787 783 778 782 785 780 781 795 805 806 803 802 806 813 824 837 845 846 846 846 840 832 821 816 821 819 801 782 773 767 762 760 757 756 756 755 755 754 753 754 754 754 755 756 758 759 761 761 762 763 764 766 768 769 772 774 777 779 780 782 783 784 787 790 791 792 793 794 794 796 798 799 801 802 803 804 805 807 808 810 811 813 814 814 815 816
779 780 774 776 779 778 778 780 784 789 795 796 794 802 812 819 829 834 835 836 831 827 825 821 820 811 792 777 766 759 757 756 756 755 754 754 753 753 753 753 754 754 755 756 757 758 760 761 762 763 764 765 767 769 771 773 774 776 777 779 780 781 784 786 788 789 789 790 791 793 795 797 798 799 800 801 802 803 804 806 807 808 809 810 811 813
770 773 769 767 766 769 775 775 773 782 798 797 789 800 810 804 807 817 819 819 818 822 826 823 813 796 781 770 760 759 757 754 755 754 753 754 752 752 754 752 752 753 754 756 757 758 759 760 761 762 763 765 766 768 769 771 772 773 775 776 777 778 781 783 784 785 786 787 789 791 792 793 795 796 797 797 799 800 801 802 803 804 806 807 809 811
765 773 770 767 766 764 769 772 772 779 792 796 796 803 803 792 795 809 815 812 813 819 817 811 806 794 784 773 758 757 757 753 755 755 753 754 752 753 754 751 752 752 753 754 755 756 757 758 759 760 761 762 763 765 766 767 769 770 771 773 774 776 778 779 780 781 783 785 786 787 787 789 790 791 792 793 795 796 798 800 801 802 804 805 807 809
754 775 777 771 771 766 763 768 771 771 777 791 800 796 792 795 798 805 815 816 819 822 809 800 802 799 796 784 759 753 757 755 754 754 752 752 752 752 751 750 751 751 751 752 752 754 755 755 757 757 758 759 760 762 763 764 766 767 769 770 771 773 774 776 777 779 780 781 782 782 783 785 786 787 788 789 792 794 796 797 799 800 802 803 804 806
744 774 786 778 776 772 769 777 784 780 775 781 787 783 787 802 806 806 812 814 818 820 806 795 795 792 790 780 760 755 757 753 750 751 751 751 750 750 749 749 750 749 750 751 751 753 754 754 756 756 757 758 759 761 761 763 764 765 767 768 769 770 771 773 775 776 777 777 778 779 780 782 784 785 786 788 790 792 793 794 795 797 799 800 802 804
738 762 784 783 777 775 777 785 790 789 783 778 781 783 783 791 797 797 798 799 806 812 805 795 791 782 772 765 759 755 750 746 746 747 749 749 747 747 747 748 748 748 749 750 751 752 753 754 755 755 757 757 758 759 759 760 762 762 764 765 766 767 768 770 771 772 773 774 775 777 778 780 782 784 785 787 788 789 790 791 792 794 796 798 800 802
737 749 773 785 782 779 781 781 778 779 782 783 786 789 787 787 790 790 790 790 796 804 804 798 792 775 754 747 749 747 743 742 743 744 745 745 744 745 746 746 748 748 749 750 750 752 753 754 754 755 755 756 756 757 757 758 759 760 761 762 763 764 765 767 768 769 771 772 773 775 776 778 779 781 783 784 785 786 787 789 790 791 793 795 797 799
736 746 767 784 784 778 776 772 768 769 772 776 780 781 783 786 789 796 798 790 788 795 795 796 794 772 744 737 739 739 739 739 739 741 742 742 743 744 745 746 748 748 749 750 750 751 753 753 754 754 754 754 754 755 755 756 757 757 758 759 761 762 763 765 766 768 769 770 772 773 774 776 777 779 780 781 783 784 785 786 788 789 791 793 794 796
728 746 766 778 779 777 775 773 771 769 765 769 774 774 776 781 784 792 797 789 787 790 787 792 795 769 739 732 735 735 735 736 737 739 740 742 743 745 746 747 747 748 748 749 750 751 752 752 753 753 753 754 754 754 754 755 755 756 756 757 759 760 761 763 764 766 767 768 769 770 772 774 775 777 778 779 780 782 783 785 786 788 789 790 792 794
728 745 766 779 782 778 776 774 771 769 768 772 775 770 772 775 775 778 781 782 788 791 789 798 798 769 741 734 735 734 734 735 736 738 740 743 744 744 746 746 746 747 747 748 749 749 750 751 752 752 752 753 753 754 754 755 755 755 755 756 756 757 758 760 761 762 763 764 766 767 769 771 773 775 776 777 779 780 782 784 785 786 788 789 791 792
726 739 756 775 784 784 784 783 779 778 773 771 770 767 766 767 771 775 776 780 787 785 785 795 791 766 745 739 736 735 735 736 736 738 740 742 743 744 744 745 746 746 747 747 748 748 749 750 750 750 751 751 752 752 753 754 754 755 755 755 755 755 756 757 758 759 760 762 763 765 766 768 770 772 774 776 777 779 781 783 784 785 786 787 789 790
723 731 735 747 759 764 766 764 761 764 764 762 763 764 763 763 767 773 776 784 787 779 778 784 777 761 749 743 740 740 739 738 736 738 740 741 742 743 743 744 745 744 745 746 746 747 748 748 749 749 749 749 750 750 751 752 752 753 754 754 755 755 756 756 757 758 759 760 761 763 765 767 769 771 772 774 776 778 779 781 782 783 784 785 786 788
725 727 722 724 728 728 731 734 734 741 754 761 762 764 765 765 766 770 777 782 779 776 780 776 767 762 755 748 747 746 743 739 736 737 740 740 742 742 742 743 742 742 744 744 745 747 746 747 747 747 747 748 748 748 749 749 750 751 752 753 754 755 756 757 758 758 759 759 760 762 763 764 766 768 770 772 773 775 777 778 780 781 782 783 784 786
725 727 722 721 720 716 722 731 732 736 746 754 757 762 765 766 769 773 777 774 771 781 785 770 762 764 752 742 746 746 742 740 737 736 737 737 740 741 741 742 741 741 742 742 744 745 744 744 745 745 746 746 747 748 748 749 749 750 751 752 753 754 755 756 756 757 758 758 759 760 761 763 764 765 767 769 770 772 773 775 777 778 780 782 782 784
720 723 721 720 721 719 722 729 732 734 740 745 750 754 755 759 765 768 769 765 764 775 774 757 754 753 736 733 741 739 737 737 735 734 734 734 737 739 740 740 739 739 739 740 741 741 741 742 742 743 744 744 746 747 747 749 749 749 750 750 750 751 752 753 754 755 756 757 758 759 760 761 763 764 765 766 767 769 770 772 774 775 777 779 780 781
717 718 718 721 724 723 723 727 730 733 739 745 749 749 750 754 756 757 758 756 756 762 755 743 746 739 724 728 735 731 731 732 730 731 732 732 736 738 737 737 736 737 737 737 738 738 739 740 740 741 743 743 744 745 745 746 746 747 747 747 747 748 748 750 751 752 754 755 757 758 760 761 762 763 764 764 766 767 768 769 771 772 774 776 777 779
719 720 718 720 726 727 724 726 730 732 737 743 747 747 749 754 756 757 755 752 755 756 745 743 750 738 721 724 729 726 727 728 728 729 730 731 734 735 734 734 734 734 734 734 735 736 737 738 739 740 741 741 741 741 742 742 742 744 744 744 744 744 745 747 748 750 752 754 755 757 758 760 761 762 763 764 765 766 767 768 769 770 772 773 775 776
720 722 718 721 730 731 725 726 731 733 737 744 747 747 748 751 752 750 744 740 745 747 747 755 755 734 719 723 726 725 725 727 727 728 728 731 732 731 732 732 731 731 731 732 733 734 735 735 736 737 737 737 737 737 738 738 739 741 741 741 742 742 744 746 747 749 751 752 754 755 757 758 759 760 761 762 764 765 766 768 769 770 771 772 773 775
715 719 720 724 728 728 727 728 729 735 745 747 738 733 735 736 735 735 733 732 734 738 746 750 734 715 716 724 724 724 725 726 726 726 727 728 727 728 728 727 727 727 727 729 730 731 731 732 733 734 733 734 734 734 735 736 737 738 738 739 741 741 743 744 746 748 749 751 753 753 755 756 757 758 759 760 762 763 764 766 767 768 769 770 772 773
711 713 718 720 721 726 730 729 732 740 740 726 710 709 716 720 725 732 732 729 731 732 732 727 712 709 719 722 721 723 723 722 722 722 722 722 723 724 724 722 723 724 725 727 727 727 728 729 729 730 731 731 732 732 733 734 734 735 737 738 739 740 741 743 744 746 747 749 750 751 753 754 755 756 757 758 759 760 761 763 764 765 767 768 769 771
711 712 716 715 718 726 730 730 736 736 719 701 697 703 710 714 722 729 726 722 724 724 721 715 709 711 718 719 718 720 718 717 718 717 716 718 719 719 719 718 720 722 722 724 724 724 726 726 727 728 728 729 730 730 731 732 732 734 735 737 738 739 740 741 742 744 745 746 748 749 751 752 753 754 755 756 758 759 760 761 762 763 764 765 767 768
710 711 712 714 719 725 730 731 728 716 705 700 700 704 713 719 724 729 725 715 711 713 716 715 712 712 716 716 714 714 714 714 714 713 713 715 716 714 713 714 717 718 719 720 720 721 722 723 724 725 725 726 727 728 729 729 730 732 733 735 736 737 738 740 741 741 743 744 745 747 749 750 752 754 755 756 758 758 760 761 761 762 763 764 766 767
710 709 710 716 720 720 725 725 714 708 709 705 698 698 702 703 705 713 716 706 700 707 713 710 707 707 707 708 710 712 714 715 715 713 712 713 711 708 708 711 713 715 715 716 717 717 718 720 720 721 722 723 724 725 726 727 728 729 731 733 734 735 736 737 738 739 740 742 744 746 748 750 752 753 755 756 758 759 760 761 761 762 763 764 765 766
710 709 708 713 718 718 721 721 719 719 710 694 686 684 683 685 690 701 713 706 693 696 700 695 695 697 699 705 710 712 716 717 712 709 711 710 705 703 707 709 710 711 711 712 714 714 716 717 718 719 720 721 722 724 724 726 727 728 729 731 732 733 734 735 736 738 739 740 742 744 747 749 751 752 754 755 756 758 759 760 761 761 762 763 764 765
710 710 708 712 718 719 717 716 717 712 691 674 675 678 682 688 690 703 724 710 678 675 686 686 687 692 696 703 707 711 718 715 703 702 706 703 699 702 706 706 706 707 708 709 711 712 714 715 716 718 719 720 721 723 724 725 726 727 729 730 731 733 733 734 736 737 738 739 741 743 745 747 749 751 753 754 755 756 757 758 759 760 761 762 763 764
715 715 716 718 717 715 712 709 706 695 675 665 670 676 682 683 685 712 733 699 654 658 676 675 678 685 689 696 703 707 708 701 692 695 699 695 696 700 701 701 703 704 706 708 710 711 712 714 716 717 718 720 721 722 723 725 726 727 728 729 731 732 733 734 735 736 738 738 740 742 744 746 748 750 752 753 755 755 756 757 758 759 760 761 762 764
717 717 717 715 712 712 710 705 698 684 667 661 665 669 675 682 694 713 707 665 637 650 662 662 670 678 681 689 697 695 689 684 685 690 692 692 695 698 699 701 703 704 706 708 709 710 712 714 716 717 718 720 721 722 723 724 725 726 727 728 730 731 733 734 735 737 738 738 739 741 743 745 747 749 751 753 755 756 757 757 758 759 759 760 761 763
710 713 714 712 711 711 706 702 698 682 658 653 663 667 669 682 690 681 659 641 640 646 650 655 662 666 671 678 682 678 676 679 684 688 690 692 695 697 700 703 702 704 707 708 708 710 711 713 714 716 717 718 719 720 721 722 723 725 726 727 728 729 731 733 735 737 738 738 738 740 742 744 747 748 750 752 754 755 757 757 758 759 759 760 761 762
692 698 703 703 703 707 709 707 701 679 650 645 661 666 660 660 660 647 639 645 648 644 649 656 657 659 665 667 668 669 672 678 684 687 690 693 694 696 700 700 701 704 706 708 710 710 710 712 714 715 716 718 719 719 720 721 722 723 725 726 727 728 730 732 734 737 737 737 738 740 741 743 746 747 749 751 753 755 756 757 758 759 760 760 761 762
683 684 688 690 690 695 699 692 677 661 646 641 648 652 646 641 642 641 641 646 648 649 652 654 654 657 661 662 665 669 671 677 683 685 689 693 694 696 699 701 703 706 707 709 712 711 712 713 715 716 718 719 719 720 721 721 722 723 724 726 727 728 729 731 734 735 736 736 737 739 740 742 744 747 749 751 753 755 756 757 759 760 761 762 762 763
673 668 670 674 673 671 668 662 654 651 649 644 639 640 641 641 643 645 642 642 646 650 651 651 654 656 656 659 665 668 670 675 680 683 687 691 694 697 701 703 705 707 709 711 712 712 713 714 715 718 719 720 720 721 721 722 723 724 726 727 728 729 730 732 734 735 735 736 737 738 740 742 744 746 748 751 753 754 756 757 759 760 761 762 763 764
663 663 662 663 666 663 656 651 652 652 649 645 641 639 640 640 644 648 647 646 646 647 649 652 653 654 656 659 663 666 670 673 677 682 686 690 695 700 702 704 707 709 710 711 712 713 714 715 717 719 719 720 722 721 722 723 724 725 727 728 729 731 732 733 735 736 737 738 738 740 741 743 745 747 749 751 753 755 756 757 758 760 761 762 763 764
664 665 664 663 666 666 656 647 649 650 648 647 645 642 641 644 648 650 651 651 651 650 652 653 653 655 659 660 660 664 669 672 677 683 688 692 697 701 702 705 708 709 710 711 711 713 714 715 717 719 720 722 723 723 723 724 725 726 728 729 730 732 733 734 736 737 738 739 740 741 743 744 746 748 750 752 754 755 757 758 759 760 761 762 763 764
663 664 666 664 662 658 649 643 646 648 647 646 645 643 644 647 650 652 653 655 656 656 656 656 657 658 659 660 662 665 670 674 677 681 688 693 697 700 703 705 706 707 709 710 711 712 714 715 718 720 721 723 724 724 725 725 725 727 728 729 731 733 734 736 737 738 740 741 742 743 744 746 748 749 751 753 754 755 757 758 759 760 761 762 764 764
660 662 660 659 660 656 647 644 647 647 647 647 646 645 645 646 649 653 655 656 656 656 657 659 661 661 661 663 666 667 670 675 678 681 687 693 696 699 701 703 704 706 707 708 710 712 713 715 718 720 722 724 725 726 726 727 728 729 729 730 732 733 734 737 738 739 741 742 744 745 747 748 750 751 752 754 755 756 758 759 760 761 762 763 764 765
655 655 652 655 660 652 639 638 643 645 646 648 648 646 645 645 646 649 653 655 656 655 655 657 661 665 666 667 668 669 671 675 680 684 688 691 694 697 699 700 703 705 706 707 709 711 713 716 718 719 722 724 726 727 728 729 730 731 732 733 733 733 734 736 737 739 741 742 744 746 747 749 751 752 754 755 757 758 759 760 761 762 763 764 765 765
640 639 642 646 645 635 628 632 639 640 641 645 645 643 643 644 644 646 649 651 653 654 656 657 659 664 668 669 671 672 672 676 681 684 688 692 694 695 696 698 700 702 705 707 708 710 713 716 717 719 722 724 726 727 728 730 731 732 734 735 735 735 735 735 736 738 740 742 743 745 746 749 750 752 754 756 757 758 760 761 762 763 763 764 765 766
Wind_Speed
7 5 7 10 10 11 11 11 8 5 6 6 5 6 6 5 6 7 6 6 6 4 6 8 9 11 10 8 9 9 10 9 10 10 9 8 7 7 7 8 9 8 8 12 19 23 24 25 26 26 26 27 28 28 29 31 31 30 29 29 31 33 31 29 27 26 27 27 25 24 24 24 23 22 21 21 21 20 19 18 18 19 19 17 17 18
8 9 12 12 10 11 12 12 10 8 7 4 3 4 5 6 7 4 6 6 6 3 4 7 9 12 12 10 10 10 11 10 10 11 11 10 9 8 8 9 9 8 7 10 15 21 25 25 26 27 26 28 30 30 31 32 33 32 31 31 30 32 32 32 31 29 29 30 29 28 28 26 25 24 24 23 24 23 21 20 19 20 21 21 20 19
9 12 14 13 11 11 12 11 11 11 9 5 3 3 5 6 6 2 8 7 5 3 4 6 8 10 11 11 11 11 11 11 11 11 10 10 10 9 9 10 9 8 8 9 10 17 24 26 27 28 27 29 31 32 33 32 33 32 32 33 31 31 32 32 32 31 31 30 30 28 27 27 26 25 26 25 25 26 25 23 22 21 23 23 23 22
11 12 14 14 13 13 13 13 12 10 8 6 4 4 5 5 5 2 5 6 5 3 5 6 7 8 10 11 11 11 12 12 13 12 10 10 10 11 11 10 10 10 10 10 9 12 19 24 25 27 28 29 31 31 32 33 33 34 34 35 34 32 32 32 32 31 30 29 27 26 24 26 26 25 26 26 25 26 27 26 25 24 24 24 24 24
11 9 14 15 15 15 14 15 14 9 7 6 6 6 5 5 6 3 4 4 3 4 6 6 6 7 9 11 11 11 12 13 13 12 12 10 10 10 10 9 11 12 11 11 11 11 15 20 24 28 29 30 30 31 33 35 36 36 37 37 35 34 32 32 33 31 29 27 26 25 22 22 24 23 24 25 26 26 27 28 28 27 26 26 25 25
10 9 15 17 16 17 14 14 15 11 6 6 7 7 7 6 7 5 6 4 1 3 4 4 3 4 5 8 9 6 8 12 12 13 14 12 10 10 9 9 10 11 11 12 12 12 15 20 24 26 28 30 30 32 34 36 37 37 37 37 36 35 34 33 33 32 30 29 28 28 26 25 26 25 26 28 29 29 29 28 27 27 28 28 27 26
7 11 16 16 15 17 14 11 14 14 7 4 7 8 9 8 6 4 2 3 1 3 1 3 3 4 4 6 7 5 5 9 10 12 15 13 12 11 10 10 9 9 10 10 11 12 15 20 22 24 29 31 32 34 35 36 38 37 35 37 38 37 36 35 34 33 33 33 31 32 32 31 30 29 28 30 30 30 30 29 28 28 29 29 29 28
10 15 16 16 16 15 12 10 13 14 7 3 8 12 11 8 5 4 3 2 1 2 1 4 4 4 7 6 7 8 9 9 9 11 13 14 15 13 12 12 11 11 10 10 10 11 15 20 23 26 30 34 35 36 36 36 38 38 37 38 39 39 38 37 36 36 37 37 35 35 34 33 32 31 30 29 29 29 29 29 29 30 30 29 29 30
14 19 19 19 15 11 11 9 11 13 7 2 7 10 9 7 5 4 3 2 2 3 3 5 4 4 7 4 5 8 9 9 10 10 11 13 16 16 13 12 13 13 12 12 12 12 14 21 27 31 33 36 38 37 37 39 39 38 38 37 38 39 39 38 37 37 39 39 37 36 36 34 33 32 30 28 28 28 28 29 30 31 31 31 30 31
11 16 18 18 12 9 10 7 9 12 7 4 6 6 4 3 1 1 1 1 4 2 6 5 4 4 6 4 4 6 6 7 8 8 8 10 13 15 13 13 14 13 12 12 13 13 16 24 31 34 35 36 38 38 38 38 36 36 36 35 36 38 38 38 38 38 39 40 38 37 36 36 34 32 30 28 28 28 28 29 30 31 32 32 31 32
6 10 10 11 9 10 10 6 7 9 7 6 6 6 5 2 3 4 3 4 2 5 6 6 7 5 5 4 5 6 7 8 8 6 7 8 8 11 12 12 12 11 11 11 12 13 18 25 31 32 32 33 35 35 34 34 34 35 35 36 37 38 37 37 38 39 39 40 40 39 38 37 35 33 31 30 30 30 30 31 31 31 32 33 33 33
7 9 6 5 7 11 12 6 3 6 8 7 5 5 4 2 4 3 3 3 2 5 1 5 9 8 7 5 2 3 4 6 8 7 7 8 8 8 10 10 11 10 10 10 10 11 14 18 22 25 27 30 30 30 32 34 34 34 35 36 37 37 38 37 37 38 39 39 41 40 38 37 36 34 34 34 33 32 33 33 33 32 32 33 34 34
6 8 8 4 2 9 14 8 3 5 8 7 6 7 6 2 1 1 2 2 5 3 1 1 3 6 9 7 6 9 9 6 7 7 7 8 8 7 6 8 9 8 8 9 9 9 9 10 14 20 24 26 28 30 33 34 33 34 34 35 36 38 39 38 37 38 39 39 40 41 39 37 36 35 35 36 35 34 34 34 34 34 33 34 35 36
6 8 12 9 1 6 12 11 8 7 10 11 9 9 8 5 3 4 4 2 4 4 4 2 3 3 6 4 9 15 14 12 9 8 7 7 8 7 4 2 3 3 4 6 7 7 7 7 9 15 19 21 24 28 30 30 31 32 32 33 35 37 37 37 37 38 39 40 40 40 39 38 36 36 36 36 35 35 34 34 35 36 36 37 37 38
11 7 13 13 7 11 14 13 13 10 11 11 8 7 7 5 5 5 4 4 4 1 3 4 3 3 3 2 6 8 8 9 7 7 7 6 8 7 4 3 3 3 3 3 4 4 4 4 6 9 12 15 19 22 23 26 28 29 30 32 33 34 34 35 37 37 39 41 40 38 37 37 37 36 36 36 35 35 35 35 36 37 37 38 39 40
10 4 9 9 5 15 17 10 9 9 8 6 4 6 6 4 4 3 2 4 4 2 1 5 3 3 2 6 9 5 4 6 6 7 6 7 8 6 6 7 6 6 5 5 4 4 4 6 7 9 10 12 16 18 20 22 26 28 29 30 31 32 32 33 36 37 37 38 37 37 37 37 37 36 36 36 35 35 35 35 36 37 38 37 38 39
9 3 9 9 6 16 17 10 11 10 7 4 3 7 4 1 3 1 1 1 2 2 3 4 4 5 4 9 10 9 11 9 7 7 7 8 8 7 7 8 7 6 6 6 6 6 7 8 11 14 16 16 18 20 23 25 27 29 31 30 30 31 30 31 34 35 35 35 35 36 38 37 37 37 37 37 36 35 35 34 34 35 36 36 36 37
8 3 3 7 9 12 9 9 12 7 6 7 6 7 4 4 2 1 2 1 2 5 3 5 8 5 3 6 6 7 12 9 8 9 9 8 7 7 8 7 7 7 6 7 7 7 7 8 12 15 17 19 20 21 23 26 27 28 30 31 31 31 31 32 32 33 34 34 34 35 36 37 38 38 38 37 35 34 33 33 34 34 34 34 34 35
8 5 3 2 5 5 4 6 7 2 0 5 6 8 6 1 3 4 4 4 5 6 4 5 8 6 7 6 2 3 9 8 8 9 9 8 7 8 8 6 5 4 4 5 5 5 5 6 8 10 11 13 14 15 17 19 21 23 25 27 28 29 29 30 30 31 32 33 34 34 34 35 36 36 36 35 33 32 32 33 33 34 34 34 33 34
8 5 1 2 2 4 5 3 6 3 1 2 4 6 5 3 4 6 5 2 3 5 5 4 4 4 6 7 5 9 10 8 7 7 8 9 8 7 5 4 4 4 3 3 3 3 2 3 3 5 7 8 9 11 12 13 16 18 21 22 24 25 25 25 27 28 30 31 32 31 31 31 32 33 33 32 31 31 32 32 32 33 33 32 32 33
6 4 5 1 3 3 5 5 9 11 7 6 7 9 7 3 1 2 3 2 2 3 3 4 4 5 4 6 11 14 12 8 7 5 6 7 6 5 6 6 6 5 4 3 4 4 3 3 3 4 6 7 9 11 12 13 14 16 17 19 20 21 22 22 24 25 26 27 28 28 28 28 29 30 30 30 31 31 31 31 32 32 31 31 32 32
5 4 7 4 2 6 7 5 5 10 12 11 9 10 10 6 3 2 5 5 3 3 3 3 5 6 4 4 8 11 9 7 7 6 5 5 6 6 5 5 5 5 4 4 4 5 5 5 6 7 8 9 10 12 13 14 15 15 16 16 17 18 19 20 20 20 21 21 23 24 24 24 24 26 27 28 29 30 29 29 30 31 31 30 31 31
4 5 7 5 3 3 3 1 3 3 11 9 6 8 9 7 6 7 8 6 5 5 3 1 5 6 3 3 5 7 5 5 6 6 5 4 6 6 5 4 3 3 3 3 4 4 4 5 6 7 8 8 9 10 11 12 14 15 15 15 15 16 17 18 18 18 18 19 19 20 20 21 21 22 24 25 27 27 27 27 28 29 30 30 31 31
4 5 6 4 2 2 2 1 4 4 3 5 4 7 9 10 10 7 4 4 4 5 4 2 6 7 3 0 2 4 6 6 5 5 5 5 5 5 5 4 2 1 1 2 2 2 2 3 4 4 6 7 7 8 8 9 10 11 12 13 14 14 14 16 17 18 19 19 19 20 21 22 23 23 24 25 26 26 25 25 26 27 28 29 30 31
3 6 8 6 3 1 2 2 1 2 3 7 9 10 11 13 12 6 2 3 3 7 9 7 7 6 3 4 4 3 4 4 4 4 6 6 5 5 4 3 2 0 2 3 3 2 2 3 4 5 7 7 7 7 8 8 8 9 10 12 14 14 14 15 16 18 19 20 21 22 23 23 23 24 25 26 27 27 26 26 26 27 28 30 31 31
6 7 10 11 11 10 9 10 9 8 7 6 10 13 13 15 15 10 4 3 5 7 9 8 8 4 3 6 5 2 3 5 6 4 6 5 5 5 4 3 2 1 3 4 4 3 4 4 5 7 8 9 9 9 10 11 11 11 11 11 12 14 15 16 16 15 16 17 17 19 21 21 21 22 23 24 25 26 26 26 26 26 27 30 31 31
4 7 11 12 14 15 13 8 9 11 10 8 11 15 13 11 11 9 5 6 8 6 4 7 8 6 9 10 7 5 6 7 6 5 6 5 5 5 5 5 3 4 5 5 5 5 5 5 6 7 9 10 11 12 13 14 14 14 13 12 12 12 13 14 15 14 13 13 13 14 17 19 21 21 21 22 23 24 25 26 27 26 26 27 29 30
4 7 11 13 15 12 7 7 12 15 16 16 17 16 15 12 9 8 9 10 8 3 5 10 10 12 18 16 9 7 8 8 7 6 7 6 6 6 5 6 5 6 5 5 6 6 6 6 6 6 9 11 12 13 14 15 16 16 15 14 13 12 12 14 15 16 15 14 14 15 15 17 19 21 21 21 21 22 24 25 26 27 27 28 28 30
3 8 12 13 13 8 8 10 14 15 15 17 19 20 21 19 17 15 15 16 13 8 12 18 18 22 24 15 9 9 9 8 8 7 7 6 7 7 6 6 6 6 6 6 7 6 6 6 6 6 9 11 13 14 14 15 16 16 16 16 16 15 15 15 15 15 15 15 15 15 14 15 16 17 19 20 20 20 21 22 22 23 24 25 27 28
3 6 10 11 10 8 9 11 14 15 13 13 17 20 20 21 22 21 20 21 19 16 19 24 23 25 21 10 7 9 10 8 7 6 7 7 7 7 7 7 7 7 7 8 7 7 7 6 6 7 8 11 14 16 16 17 17 18 18 18 18 18 17 16 14 13 12 12 13 12 12 12 12 13 15 17 18 18 18 19 20 21 22 23 25 27
2 4 8 10 8 7 8 12 14 15 15 15 17 18 18 19 19 19 19 19 17 19 24 22 18 21 14 5 4 6 6 7 6 7 8 7 8 8 8 8 8 8 8 8 8 7 7 7 7 6 8 12 15 16 17 17 18 19 20 20 20 19 18 17 16 14 12 11 10 10 10 10 10 11 12 13 15 16 16 17 17 18 20 22 23 24
3 4 6 7 6 6 7 12 15 14 13 14 16 18 19 19 18 19 22 21 18 19 20 15 14 17 8 6 5 7 4 6 7 8 8 6 8 9 9 8 9 9 9 8 7 8 8 8 7 7 9 12 13 14 15 16 17 19 20 21 21 19 18 17 17 15 13 11 10 10 10 11 11 11 12 13 14 15 16 17 17 17 18 19 20 22
6 6 6 7 8 8 8 11 13 12 9 10 15 21 24 24 23 23 22 22 20 17 14 13 17 16 5 7 10 11 9 9 8 8 7 7 9 10 9 10 10 10 9 8 7 8 8 8 8 10 12 13 12 13 13 14 16 18 19 19 19 18 18 17 17 15 13 11 11 11 11 11 11 11 12 13 14 15 17 17 18 19 19 19 20 20
9 9 7 7 7 7 7 9 9 10 11 12 15 22 27 27 25 22 20 20 19 15 14 16 19 15 7 8 11 9 9 10 9 9 9 8 8 8 9 11 10 9 8 7 8 9 8 7 10 12 14 13 12 11 11 12 14 15 15 16 17 18 18 17 17 16 14 13 12 12 12 12 12 12 12 13 14 15 16 17 18 19 19 20 20 21
10 9 6 5 4 5 8 8 8 11 13 9 8 16 21 21 20 20 21 22 21 21 23 24 22 16 10 9 9 8 9 10 9 10 11 9 8 9 12 11 9 8 8 7 7 7 7 8 11 13 14 13 11 11 10 11 13 13 13 15 17 18 17 17 18 18 16 15 14 14 14 13 13 13 13 13 13 14 15 15 16 17 18 18 19 20
9 9 6 4 3 4 6 8 9 7 4 4 7 12 13 12 14 17 20 23 24 23 21 22 22 18 14 13 11 9 9 8 8 10 10 9 10 13 14 10 8 9 8 8 9 8 8 11 12 13 13 12 11 12 12 12 13 13 14 15 17 17 17 17 18 19 18 17 16 15 15 14 13 13 12 13 13 13 14 14 15 16 16 17 17 18
8 8 5 3 3 3 6 9 7 1 2 5 9 12 15 16 19 19 16 19 20 18 17 20 23 22 21 18 12 7 3 2 6 8 7 9 14 16 14 10 8 8 8 9 11 9 9 10 11 11 11 11 12 13 13 13 14 15 16 16 17 17 17 17 19 20 20 18 17 15 14 14 13 12 12 12 12 13 13 13 14 15 15 16 16 17
7 8 5 5 3 2 5 8 6 3 7 11 13 16 20 19 16 14 9 12 14 17 21 24 25 24 20 15 11 6 2 5 11 7 7 12 18 15 10 8 7 9 10 11 11 9 9 9 9 10 11 12 12 12 12 13 14 15 16 16 16 17 17 18 19 19 19 18 16 15 14 13 13 13 13 13 13 13 13 13 14 15 15 15 16 17
8 7 4 3 3 4 6 7 7 8 13 11 11 14 14 12 10 11 4 13 17 20 22 24 24 21 15 11 10 8 6 11 13 6 9 15 16 10 9 10 10 11 12 9 7 8 9 9 8 8 9 10 10 10 10 12 13 15 15 15 14 15 15 16 17 17 18 18 16 15 14 13 14 13 13 13 13 13 13 14 14 14 14 15 15 16
6 5 4 3 3 6 9 7 5 8 10 7 13 14 13 14 15 13 6 15 16 16 19 22 23 20 15 12 10 10 11 15 12 6 9 12 10 8 9 10 9 9 6 4 3 3 5 5 5 6 6 7 8 9 10 11 13 13 13 12 12 12 12 13 14 15 16 16 15 15 14 14 14 13 13 13 12 12 12 13 14 15 15 15 15 16
3 3 4 6 6 8 10 8 5 7 6 7 13 15 16 16 13 11 12 11 7 13 17 19 20 18 16 13 10 10 15 14 8 6 8 8 8 6 4 3 5 5 7 8 5 4 6 6 5 6 6 7 8 8 10 12 13 13 12 12 11 10 9 10 11 14 15 14 14 14 14 14 14 13 13 13 12 12 12 12 13 14 14 15 15 16
4 3 3 5 6 6 7 6 5 7 5 9 13 16 19 15 10 12 9 2 7 12 14 16 18 18 17 17 15 15 15 10 8 9 9 9 9 7 5 6 8 9 9 8 6 6 9 10 10 10 9 8 9 9 10 13 13 13 13 12 11 9 7 6 9 13 14 14 13 13 13 13 12 12 12 13 13 13 13 13 13 13 13 14 15 16
7 7 6 6 5 3 3 5 6 8 6 15 17 15 16 13 10 6 2 5 4 8 10 11 13 14 15 17 17 16 12 8 9 9 8 8 8 7 7 6 7 8 8 8 8 9 13 14 12 11 9 8 9 10 11 13 13 13 12 11 9 8 7 7 9 12 13 13 13 13 12 12 12 11 12 12 13 13 13 14 14 13 13 14 15 15
6 8 7 6 6 6 6 10 8 4 5 17 18 13 11 8 3 3 3 2 1 3 7 8 8 9 12 12 11 10 9 8 9 9 8 8 7 7 6 6 7 7 8 9 9 11 14 15 14 12 10 8 8 9 10 12 14 14 12 10 9 9 9 9 10 12 13 13 13 13 12 11 10 10 11 11 12 12 13 13 13 13 13 13 14 14
10 11 6 5 9 9 7 8 6 1 5 11 10 8 11 8 1 3 4 5 4 4 5 7 7 9 11 11 9 9 8 8 8 9 9 8 7 7 7 6 7 9 9 11 11 12 15 17 16 15 13 10 9 10 9 10 12 14 12 10 9 10 10 11 11 12 12 12 12 11 11 10 9 9 9 9 10 11 12 12 12 12 12 12 12 13
8 8 3 1 6 8 8 5 3 1 5 8 4 5 12 11 0 4 1 3 5 6 5 6 8 8 9 9 9 8 7 8 8 8 8 8 7 7 7 7 8 10 11 12 13 14 17 17 17 16 15 13 12 12 11 10 11 12 11 9 8 8 9 10 11 11 11 10 10 9 8 8 8 7 6 7 8 9 10 11 11 11 11 11 12 12
3 7 5 2 5 8 11 9 6 4 7 9 5 5 8 6 4 4 2 2 0 3 4 3 5 7 8 8 9 8 7 8 10 8 7 8 8 8 8 7 8 9 11 12 13 15 16 16 15 14 15 15 13 13 14 14 13 12 10 9 8 8 9 10 11 12 11 10 9 9 7 7 7 7 6 6 6 7 7 8 9 10 10 11 12 12
4 7 7 6 7 8 9 8 7 7 8 9 7 6 6 5 4 5 5 3 3 4 5 5 5 7 6 6 8 9 7 8 10 10 8 7 7 8 8 7 8 9 12 13 14 14 15 15 14 14 15 15 14 15 16 16 15 13 12 11 10 9 10 11 12 12 12 11 10 9 8 7 7 7 6 6 5 6 6 7 8 9 9 10 11 12
5 7 8 8 8 7 8 5 6 7 7 9 7 5 5 5 6 6 5 5 5 5 5 6 5 4 5 6 7 9 9 9 9 10 10 8 8 8 7 8 10 12 14 15 16 16 16 16 16 16 16 15 15 16 17 17 16 14 14 13 11 10 12 14 13 13 12 11 10 10 8 7 6 5 5 6 5 4 4 4 6 8 9 9 9 11
7 9 9 7 7 12 12 8 7 6 5 7 6 5 5 6 7 7 6 6 6 6 6 6 5 5 3 3 5 9 10 8 8 10 10 8 8 9 9 10 12 14 15 18 19 19 19 18 18 19 19 16 16 17 18 17 16 15 14 13 11 10 13 15 15 15 13 12 11 10 8 8 7 5 4 4 4 4 2 2 3 5 7 8 9 10
10 12 10 10 12 12 8 8 9 6 4 6 9 9 9 8 8 9 9 8 8 7 8 9 6 4 3 2 2 6 10 9 9 11 10 7 8 10 12 13 13 14 16 18 19 19 19 19 20 21 20 18 18 19 18 18 17 15 14 13 11 10 12 14 16 16 14 12 12 10 9 9 8 6 5 4 3 2 2 2 2 4 5 7 8 10
Wind_Direction
171 166 199 209 195 188 190 197 200 178 177 193 188 198 226 236 229 207 160 153 174 192 234 231 248 257 251 240 235 250 254 242 229 221 216 209 211 206 191 197 205 210 214 204 198 196 196 195 194 195 193 194 196 197 199 202 205 205 203 202 205 209 209 207 205 205 205 202 202 203 203 204 206 209 210 207 205 207 208 208 209 211 214 215 210 210
176 198 208 204 189 182 187 196 198 204 218 209 182 212 228 239 246 208 133 139 160 174 243 242 254 258 254 250 238 235 244 251 237 220 218 211 204 204 199 200 203 205 207 201 192 189 192 194 193 194 194 193 195 198 200 202 204 204 203 203 205 207 207 208 206 204 205 205 204 204 204 204 205 208 208 206 206 207 206 207 210 213 214 214 212 213
190 215 204 188 187 185 187 198 198 204 220 215 189 217 226 231 246 173 127 147 158 164 243 250 257 260 258 253 243 232 230 239 239 223 215 213 209 207 204 203 200 194 196 199 189 183 187 192 193 194 195 196 197 200 201 202 204 204 204 206 206 207 207 208 208 206 206 206 206 206 207 205 205 208 209 209 209 211 210 208 209 214 216 215 213 214
198 214 192 177 187 190 190 198 199 203 214 213 197 216 234 224 227 200 137 153 159 188 260 271 268 266 264 259 247 233 227 231 234 231 226 216 209 211 208 201 194 191 194 198 193 182 186 190 192 194 197 199 200 201 201 202 204 205 206 207 207 207 208 209 208 208 208 207 206 206 209 209 208 210 211 211 213 216 216 214 212 214 218 219 216 216
201 195 176 177 186 191 196 197 197 201 208 210 206 216 233 220 220 210 139 153 183 219 246 271 286 270 244 242 243 232 226 230 231 230 233 225 211 212 211 204 196 191 190 192 194 186 184 190 195 197 199 200 202 202 202 202 203 205 207 207 207 207 208 210 210 209 208 207 205 204 206 208 208 210 209 209 212 214 217 218 217 216 218 219 219 217
202 165 169 182 184 188 197 197 194 194 195 207 210 222 237 229 231 211 146 138 269 259 217 205 269 278 235 233 241 229 213 223 228 226 231 230 218 211 213 214 205 194 189 189 192 187 186 193 196 199 200 202 205 206 205 205 205 206 207 207 207 207 208 210 210 209 206 206 204 201 200 200 201 204 206 206 209 210 213 217 218 218 218 218 220 219
188 165 173 183 182 186 197 199 194 189 186 200 189 205 238 245 253 259 154 141 238 282 196 172 236 285 300 274 260 266 240 226 223 218 224 229 223 213 210 211 209 201 193 190 190 185 188 193 193 198 202 203 207 209 208 208 208 208 207 206 207 207 208 208 208 207 206 205 205 204 203 203 203 204 207 209 210 211 212 215 217 217 217 218 220 220
166 171 177 180 180 185 195 199 193 184 180 194 169 182 219 241 256 271 276 235 235 345 302 203 212 271 282 266 245 258 264 252 236 220 216 219 223 220 211 207 208 206 198 193 193 187 188 192 194 199 202 205 209 209 208 209 210 209 208 208 207 208 208 207 207 207 207 206 205 206 207 208 209 210 210 210 211 214 214 214 216 215 215 216 218 218
166 176 178 176 180 188 192 188 179 174 174 177 161 169 197 220 235 250 264 264 50 25 273 211 176 254 268 248 211 230 242 243 239 231 220 215 217 217 211 205 206 209 205 199 199 195 191 193 196 201 203 207 210 209 209 210 211 210 209 209 208 209 209 208 207 208 209 208 207 207 208 210 213 214 213 211 211 213 212 212 213 213 213 214 215 215
171 180 175 173 180 186 180 167 164 174 177 156 140 121 120 173 209 16 306 71 60 308 250 206 180 249 273 250 210 226 231 230 231 231 231 222 212 208 206 207 207 208 207 205 204 203 199 196 198 203 205 207 210 210 211 212 212 211 211 210 209 210 209 209 208 208 210 210 208 208 209 211 212 212 211 210 210 211 209 209 209 209 211 211 211 213
168 165 164 174 185 176 159 140 160 175 164 138 126 100 88 68 45 41 46 74 57 262 236 192 198 239 277 235 187 202 211 211 218 226 234 233 219 208 206 210 210 207 206 207 207 206 204 202 202 203 204 207 209 210 210 211 211 211 211 211 212 212 211 210 209 209 210 210 209 210 212 212 212 210 208 208 210 210 209 210 209 208 210 210 211 213
168 149 154 185 187 165 148 135 172 182 159 143 136 122 109 41 37 33 36 90 216 252 214 189 199 210 239 240 206 238 228 202 203 212 224 230 229 219 212 213 211 206 205 205 208 209 204 204 204 201 202 206 206 205 206 209 209 209 210 210 212 213 213 212 210 209 210 211 211 213 214 214 213 210 208 207 209 209 210 211 211 211 211 212 213 213
170 161 161 159 217 171 151 142 173 188 170 165 159 147 154 165 117 177 182 185 229 241 322 199 184 214 240 252 256 265 273 250 214 207 217 225 235 237 224 219 218 210 206 204 208 212 205 199 197 196 200 202 200 201 205 207 207 208 209 209 211 213 213 212 212 211 211 212 214 214 214 215 214 212 210 210 210 210 210 210 210 210 210 210 210 210
167 180 170 157 226 187 161 156 169 182 181 182 175 165 174 169 168 199 188 229 245 229 226 160 88 271 266 262 240 241 249 247 236 230 230 227 239 256 258 208 215 220 214 207 205 210 214 212 199 197 200 200 198 202 205 205 206 207 208 209 211 215 214 213 213 213 213 214 216 216 216 215 215 214 213 212 212 211 211 211 210 209 209 209 208 207
170 184 176 168 167 173 178 180 173 165 175 187 176 164 182 171 175 194 178 213 226 187 220 179 134 241 230 299 258 238 240 239 239 244 241 240 243 253 267 237 211 213 193 170 175 182 180 180 187 193 199 201 203 205 205 205 206 207 210 211 213 216 215 214 215 215 215 217 217 217 218 218 217 216 216 215 214 212 212 212 211 210 211 211 210 208
176 187 168 168 163 170 180 186 161 141 159 191 158 159 201 196 169 177 171 199 188 107 208 197 230 265 254 298 288 268 268 249 242 252 245 247 248 245 257 255 241 223 196 168 166 181 177 172 184 194 197 201 205 207 208 208 209 210 212 213 216 218 217 216 217 217 218 219 219 219 219 219 219 218 217 216 216 215 213 213 213 212 212 212 211 209
181 181 164 165 176 180 180 173 164 160 158 165 169 176 194 76 116 152 262 116 123 232 221 182 246 286 296 290 274 247 253 246 229 243 240 237 242 238 240 248 245 224 198 185 185 195 197 191 198 206 208 208 207 209 212 213 215 215 215 216 217 220 219 219 219 220 220 220 220 221 221 220 220 219 218 218 217 216 215 215 215 214 212 213 212 210
164 129 165 175 180 186 181 159 168 178 152 151 185 176 124 43 56 126 238 167 159 243 237 183 218 229 206 263 268 232 242 241 215 222 232 235 234 233 238 244 240 219 199 200 201 203 201 196 204 210 215 217 216 216 217 219 220 220 219 219 219 221 221 221 222 222 222 222 221 222 222 221 221 220 220 220 218 217 216 217 217 215 214 213 214 214
145 113 359 263 180 149 89 126 165 249 246 154 173 166 146 202 204 170 202 209 196 233 260 210 217 215 200 223 303 245 232 229 215 209 216 231 231 232 242 241 223 195 180 197 204 207 206 204 210 210 213 217 217 219 220 221 222 222 223 223 223 225 225 225 225 225 225 224 224 225 225 224 223 223 222 220 219 218 217 218 217 215 215 216 216 217
155 142 109 282 260 132 106 145 182 199 347 106 151 179 196 226 195 182 194 183 180 224 256 238 222 229 211 193 203 234 228 211 209 199 198 222 229 223 210 178 156 139 133 147 152 155 156 167 187 188 192 199 202 209 213 213 215 217 221 223 223 225 226 225 226 226 226 226 225 225 225 225 224 223 223 221 219 219 219 219 218 216 216 217 217 219
153 145 137 175 298 185 168 200 189 176 168 164 176 190 198 197 130 173 199 191 165 202 245 257 250 254 236 183 197 222 231 218 207 190 194 215 211 181 152 143 146 146 142 131 125 124 118 130 170 188 194 197 200 208 213 214 215 215 217 220 221 223 224 224 224 225 227 226 225 225 225 224 223 222 222 221 219 220 221 221 220 218 216 216 217 218
157 148 139 142 217 191 179 198 201 182 176 179 186 188 187 184 144 155 207 209 197 213 235 258 266 264 248 196 195 208 219 211 188 179 195 193 162 142 135 144 152 153 159 159 153 158 160 172 188 194 198 203 208 213 217 217 217 217 219 220 222 224 224 224 223 223 225 225 223 223 222 221 220 220 221 221 220 221 223 223 221 219 218 217 218 220
123 110 135 138 166 178 161 199 315 213 182 184 201 191 184 183 175 188 209 197 183 222 248 301 280 273 238 172 172 178 173 150 145 164 183 161 132 122 122 137 143 145 169 182 176 172 175 185 191 191 196 205 213 217 219 220 219 218 220 219 219 223 223 221 220 219 221 221 218 216 217 218 219 220 221 221 221 222 223 223 221 220 220 220 221 222
91 109 136 102 74 35 39 49 351 354 169 183 217 197 184 193 195 194 196 165 169 203 194 204 257 265 273 2 113 123 120 120 137 156 145 117 105 114 129 138 137 142 204 238 228 202 190 191 195 206 213 213 215 219 223 226 222 214 211 209 207 211 215 215 215 218 220 220 219 219 221 224 226 226 226 225 224 225 225 226 225 223 224 224 223 223
173 151 140 121 139 110 77 145 268 317 210 195 202 199 191 191 190 183 156 139 192 204 186 199 239 240 270 343 21 79 120 152 191 166 137 135 138 143 146 136 123 94 304 292 274 240 212 207 211 225 230 223 217 220 220 218 215 206 203 203 202 202 201 200 205 213 219 222 224 226 228 231 233 233 233 232 231 231 232 232 231 229 228 227 224 222
174 171 163 161 173 176 178 187 186 189 197 189 189 195 197 191 186 189 190 174 213 210 185 205 237 237 306 330 327 291 202 202 217 178 142 152 165 162 152 134 124 229 265 265 251 233 228 224 219 217 217 214 210 212 210 205 203 202 202 204 206 206 201 198 199 205 212 219 224 228 230 231 231 231 232 232 232 232 231 231 231 229 227 224 221 221
139 189 193 186 190 190 189 182 145 144 158 169 180 189 197 198 188 190 201 205 218 217 194 232 253 273 281 271 260 256 234 220 222 192 164 170 181 178 167 157 174 216 239 245 233 224 226 225 222 215 211 210 210 210 208 204 201 200 200 201 204 208 206 204 203 202 205 211 218 224 226 226 228 229 230 232 232 232 232 232 234 234 232 229 225 225
136 194 199 201 206 194 165 138 138 150 167 176 176 178 187 190 181 192 213 219 224 236 249 249 251 260 260 245 213 215 227 224 223 205 189 185 182 181 170 169 199 230 238 236 227 222 222 223 220 211 208 209 209 210 209 207 205 203 203 202 200 203 207 208 210 211 211 213 217 222 223 221 223 225 228 231 231 230 230 231 232 233 233 232 228 227
166 194 191 198 202 173 129 139 158 168 176 178 176 179 185 184 183 194 210 216 211 207 229 235 229 237 246 236 195 198 209 214 217 200 184 172 160 162 167 179 209 229 226 222 225 221 215 217 214 203 205 207 207 210 210 209 209 208 208 207 204 204 207 211 216 216 216 219 222 225 229 229 227 224 225 227 228 228 229 229 230 231 231 230 228 227
211 191 175 181 194 182 148 146 164 175 176 179 184 187 186 186 191 197 206 214 213 212 227 231 231 238 242 221 191 205 201 202 202 166 153 156 154 164 183 199 214 223 220 217 219 216 206 206 209 199 197 202 204 208 210 209 211 212 212 211 210 209 210 212 216 217 218 224 228 230 235 239 239 235 229 227 228 228 228 228 229 230 230 230 228 228
242 187 162 162 184 199 165 154 168 178 176 180 189 191 189 190 197 204 212 217 215 220 231 234 243 253 246 173 176 225 192 173 164 154 165 166 164 180 199 212 221 225 225 220 214 213 204 199 203 198 197 206 209 211 213 214 215 216 216 216 216 215 213 211 211 213 217 221 223 225 229 231 232 233 231 228 227 228 229 229 229 230 229 228 226 226
203 186 164 155 175 206 186 168 171 174 179 188 191 190 189 189 196 205 213 214 208 215 228 234 246 253 234 145 199 237 202 173 168 172 184 180 182 197 205 216 227 231 231 228 218 213 206 200 202 204 212 219 219 219 221 219 216 216 217 219 220 218 213 210 209 210 214 215 213 215 220 223 224 224 225 224 223 223 226 229 231 232 231 229 228 227
172 173 168 163 183 204 193 174 168 163 174 201 200 192 188 193 199 204 212 216 211 211 216 219 232 237 191 153 208 221 211 208 200 188 191 196 204 211 212 216 226 233 233 230 220 212 207 204 204 210 220 229 232 233 234 227 220 222 224 222 220 216 210 207 207 209 211 210 208 212 217 219 220 221 222 222 221 220 221 222 224 226 228 229 229 228
170 172 171 173 186 185 163 154 155 169 197 214 205 193 191 194 198 202 214 218 213 215 221 228 237 236 204 192 212 211 207 210 208 204 200 198 207 221 228 227 228 233 235 232 224 216 210 207 209 214 224 235 242 243 241 234 230 233 231 223 217 212 208 205 203 205 209 208 206 210 214 216 218 220 221 221 219 220 220 220 221 221 223 225 225 224
179 175 170 177 181 158 148 149 166 202 219 213 182 185 194 198 198 204 221 222 211 215 224 232 241 239 225 224 223 219 219 210 205 212 206 195 203 226 240 237 223 222 230 231 228 220 208 204 207 214 224 233 238 236 232 231 230 227 222 216 212 210 208 204 201 202 205 206 205 207 211 214 216 217 218 218 218 218 219 220 220 220 221 222 223 223
187 185 179 171 163 146 152 172 192 215 218 142 145 165 176 192 202 209 227 229 217 214 221 232 243 243 235 233 224 213 212 205 211 221 207 196 211 230 239 234 210 210 220 223 227 221 205 205 209 216 225 227 226 225 225 225 222 214 210 210 209 209 207 203 201 201 202 204 205 207 211 214 215 215 216 217 218 219 221 221 221 220 220 221 221 221
196 195 176 154 179 168 166 189 209 306 71 164 182 173 170 189 199 200 222 235 222 212 217 227 234 234 229 228 220 204 182 208 246 235 195 200 224 229 232 224 203 205 211 214 218 206 191 202 211 216 221 218 216 220 220 218 213 205 200 201 204 205 202 200 202 202 202 203 205 207 210 214 216 216 217 218 220 222 224 225 224 222 219 218 217 218
207 202 180 167 191 165 161 190 210 243 230 213 197 182 183 193 193 183 214 249 227 207 211 221 227 228 226 221 207 189 171 258 256 230 169 208 229 228 227 229 216 215 220 219 216 202 196 207 210 208 211 208 208 215 215 210 205 197 193 195 198 199 197 200 204 203 202 202 204 206 209 214 219 220 219 220 222 225 228 228 226 223 219 218 217 218
208 208 194 178 180 157 174 193 191 217 237 219 176 174 180 174 146 129 182 255 238 210 207 218 225 224 220 208 188 170 187 237 246 208 170 212 226 214 211 226 229 232 234 228 219 211 209 212 210 207 209 204 201 206 206 202 197 192 189 189 193 196 197 200 204 205 203 203 203 206 208 212 219 223 224 225 225 226 229 228 224 220 217 217 218 218
199 191 178 184 188 174 185 198 196 230 245 187 153 166 165 143 124 120 195 252 239 203 199 212 219 218 209 197 182 176 203 229 238 206 188 209 211 192 202 217 222 226 212 159 146 174 172 179 194 197 197 194 196 199 197 192 187 184 183 183 188 197 203 205 206 206 206 204 202 205 209 211 216 221 226 231 231 229 229 226 222 218 213 211 212 212
167 170 174 184 192 186 192 205 225 250 242 162 158 162 144 127 128 162 213 236 192 171 192 204 207 209 204 191 185 202 220 225 216 177 171 172 168 170 171 136 129 127 114 110 118 135 131 134 148 153 157 172 183 188 189 185 177 173 174 176 182 195 211 217 210 204 203 201 199 201 206 209 215 221 225 230 231 229 227 225 223 220 214 209 207 206
157 166 178 182 186 190 200 209 238 260 227 156 153 151 141 145 181 199 207 198 133 162 188 194 194 197 195 191 196 212 219 202 156 150 155 154 156 152 123 105 103 99 102 112 125 141 143 141 141 143 148 161 172 179 182 179 171 166 168 173 179 189 203 210 204 200 198 195 193 197 202 207 213 220 224 226 226 225 223 222 221 220 214 209 208 207
174 169 179 188 178 162 193 202 232 261 209 146 145 156 163 177 201 192 107 43 104 155 166 184 197 194 189 196 204 209 207 171 146 157 163 157 152 141 137 136 126 120 123 121 126 145 148 139 132 133 136 146 162 171 176 173 165 159 162 166 170 177 179 179 187 191 191 189 190 193 198 204 211 217 221 222 222 221 220 218 216 215 212 211 211 211
186 179 183 197 182 165 188 199 209 250 166 149 153 171 189 199 202 147 125 72 44 150 157 176 196 186 182 194 201 201 195 167 156 161 156 149 147 140 136 128 118 120 119 113 120 139 139 127 117 113 112 119 137 152 166 170 160 151 151 154 160 168 169 169 177 181 179 181 183 186 191 197 204 211 216 218 217 216 216 215 214 214 215 215 215 215
202 192 184 195 195 194 206 204 194 177 175 174 168 169 189 207 304 53 140 160 181 207 181 170 183 183 177 176 176 184 189 174 161 156 150 150 149 136 127 115 110 114 116 115 120 131 131 124 117 111 104 102 113 126 144 160 153 140 135 143 158 166 164 166 173 172 169 170 173 176 181 185 192 203 209 213 215 213 214 215 214 214 216 217 217 217
203 198 212 205 199 227 260 244 183 146 199 205 222 193 188 194 108 41 71 184 185 181 155 157 178 177 163 156 157 171 182 166 150 144 141 141 136 129 123 114 111 120 125 122 119 123 124 119 114 110 101 93 98 107 115 129 134 126 124 137 153 158 159 163 163 157 155 157 158 161 168 169 172 184 191 198 206 211 216 219 216 214 215 213 214 217
210 201 220 220 175 209 240 228 185 182 202 198 217 230 195 168 83 74 73 349 229 139 109 106 148 148 143 148 152 161 170 154 141 142 144 139 138 140 136 127 124 126 124 122 121 122 120 113 108 104 93 83 85 95 102 107 111 111 115 125 131 137 145 149 145 140 139 139 138 140 147 151 154 161 168 178 191 201 211 219 218 216 216 213 213 215
203 182 197 217 199 201 233 228 182 185 205 196 193 212 198 163 114 107 112 78 61 90 76 52 78 122 143 159 153 149 156 156 152 153 152 146 144 143 137 132 127 118 112 114 119 117 112 107 103 97 87 79 80 90 96 97 98 103 109 111 114 125 132 130 129 127 125 124 126 128 130 135 141 150 157 164 177 194 207 216 218 220 224 227 227 226
133 160 190 207 211 236 265 253 169 171 210 215 210 229 230 189 154 139 132 114 100 101 92 63 51 90 153 170 156 146 154 169 165 152 145 146 144 139 134 128 120 114 109 109 111 111 108 106 102 97 89 84 87 92 93 92 94 101 106 108 111 122 125 122 121 119 116 116 120 121 121 124 126 135 148 155 162 180 207 225 227 228 236 243 246 245
145 186 196 183 201 234 241 215 166 157 192 213 214 233 246 213 177 168 159 140 143 155 139 109 61 40 69 125 143 150 157 162 153 142 140 144 143 138 135 128 119 114 112 111 110 110 107 106 106 102 97 94 97 98 95 93 95 98 102 105 109 118 123 123 121 118 115 117 119 119 120 123 123 120 125 140 159 175 194 239 250 250 252 256 258 257
190 194 188 185 208 227 213 168 160 154 154 182 197 209 219 212 194 193 189 175 177 178 157 142 133 116 99 60 91 152 158 151 144 140 132 130 134 131 129 128 125 120 119 118 115 111 108 109 110 108 104 103 104 102 98 97 97 98 102 105 108 114 121 123 122 119 118 119 120 120 121 124 127 123 114 117 142 170 194 246 277 287 280 275 273 269